Other Public Products
Issued by NWS Grand Forks, ND

Home | Current Version | Previous Version | Text Only | Print | Product List | Glossary Off
Versions: 1 2 3 4 5 6 7 8 9 10 11 12 13 14 15 16 17 18 19 20 21 22 23 24 25 26 27 28 29 30 31 32 33 34 35 36 37 38 39 40 41 42 43 44 45 46 47 48 49 50

000
FPUS83 KFGF 220110
OPUFGF
PRAIRIE TO PINES WEATHER ROUNDUP
NATIONAL WEATHER SERVICE EASTERN NORTH DAKOTA/GRAND FORKS ND
800 PM CDT THU SEP 21 2017

 **SATELLITE DATA USED TO AUGMENT SKY COVER AT AUTOMATED STATIONS**
 *****  WEATHER ACROSS EASTERN NORTH DAKOTA  *****

CITY           SKY/WX    TMP DP  RH WIND       PRES   REMARKS
GRAND FORKS    FAIR      70  56  61 SE8       29.70R
GRAND FORKS AF FAIR      70  52  52 SE10      29.70R
GRAND CITY NWS NOT AVBL
BUXTON         NOT AVBL
DEVILS LAKE    CLOUDY    67  55  65 N12       29.72R
FARGO          CLOUDY    76  62  62 SE10      29.69R
WAHPETON ARPT  MOCLDY    73  64  73 E8        29.69S
$$

 *****  WEATHER ACROSS CENTRAL AND WESTERN NORTH DAKOTA  *****

CITY           SKY/WX    TMP DP  RH WIND       PRES   REMARKS
JAMESTOWN      MOCLDY    73  60  63 SE9       29.67R
BISMARCK       FAIR      68  45  43 N8        29.73R
MINOT          FAIR      60  44  55 NW13      29.78R
MINOT AFB      FAIR      59  43  55 NW12      29.77R
GARRISON         N/A     61  47  59 N6        29.77R
WILLISTON      CLOUDY    53  41  63 NW7       29.85R
DICKINSON      FAIR      58  39  49 N9        29.80R
HETTINGER      FAIR      61  42  49 N10       29.79R
$$

 *****  OTHER OBSERVATIONS NORTHEAST NORTH DAKOTA  *****

CITY           SKY/WX    TMP DP  RH WIND       PRES   REMARKS
WALHALLA       FAIR     N/A N/A N/A NW12      29.71R
LANGDON        CLOUDY    64  55  72 N12       29.73R
CAVALIER       MOCLDY    70  50  49 SE3       29.70R
GRAFTON        FAIR      68  52  56 SE7       29.72R
CANDO          CLOUDY    63  54  72 N9        29.75R
FORT TOTTEN      N/A     66  56  71 NW2       29.95S
ROLLA          MOCLDY    55  52  88 N8        29.77R
RUGBY          FAIR      61  52  72 NW10      29.75R
 ***** THE ABOVE OBSERVATIONS ARE NON NWS ARE NOT QUALITY
        CONTROLLED AND MAY MIS-REPORT RAIN FOR SNOW...
$$

 *****  OTHER OBSERVATIONS SOUTHEAST NORTH DAKOTA *****

CITY           SKY/WX    TMP DP  RH WIND       PRES   REMARKS
COOPERSTOWN    FAIR      66  57  72 SE9       29.70S
VALLEY CITY    MOCLDY    72  63  73 SE7       29.70R
OAKES          NOT AVBL
GWINNER        MOCLDY    73  68  83 CALM      29.68R
SHEYENNE NWR     N/A     73  68  83 SE6       29.95
BUFFALO        NOT AVBL
WYNDMERE       NOT AVBL
 ***** THE ABOVE OBSERVATIONS ARE NON NWS ARE NOT QUALITY
       CONTROLLED AND MAY MIS-REPORT RAIN FOR SNOW...
$$

  *****  WEATHER ACROSS NORTHERN MINNESOTA  *****

CITY           SKY/WX    TMP DP  RH WIND       PRES   REMARKS
FLAG ISLAND    FAIR      66  52  59 SE8       29.76R
WARROAD        CLOUDY    70  54  56 S7        29.77R
ROSEAU         CLOUDY    70  54  56 CALM      29.77R
HALLOCK          N/A     70  46  43 SE7       29.71R
THF RVR FALLS  CLOUDY    70  53  54 SE10      29.76R
HALSTAD        NOT AVBL
FOSSTON        FAIR      68  54  60 SE9       29.75S
BAUDETTE       MOCLDY    66  51  58 SE9       29.78S
WASKISH        FAIR      64  54  68 SE7       29.79S
CROOKSTON      FAIR      72  54  53 SE8       29.72R
$$
  *****  WEATHER ACROSS CENTRAL AND WEST MINNESOTA  *****

CITY           SKY/WX    TMP DP  RH WIND       PRES   REMARKS
BEMIDJI        MOCLDY    67  52  58 SE8       29.79S
PARK RAPIDS    FAIR      71  58  63 E8        29.77F
WADENA         FAIR      70  63  78 SE12      29.76S
DETROIT LAKES  FAIR      72  59  64 SE13      29.75S
MOORHEAD       MOCLDY    75  63  64 SE3       29.70S
FERGUS FALLS   MOCLDY    75  64  69 SE8       29.70R
ELBOW LAKE     MOCLDY    74  68  81 SE8       29.72R
MORRIS MN      FAIR      77  70  78 SE12      29.70R
STAPLES        MOCLDY    72  63  73 SE6       29.78S
WHEATON        FAIR      73  66  78 SE6       29.70R
$$
  *****  WEATHER ELSEWHERE ACROSS MINNESOTA  *****

CITY           SKY/WX    TMP DP  RH WIND       PRES   REMARKS
DULUTH         CLOUDY    60  56  86 E17G24    29.91R
INTRNTL FALLS  FAIR      62  50  64 SE9       29.82S
ELY            FAIR      59  48  67 SE8       29.90S
CLOQUET        CLOUDY    61  55  82 E9        29.90R
BRAINERD       MOCLDY    71  63  75 SE3       29.81R
HIBBING        FAIR      61  53  75 SE13      29.88R
ALEXANDRIA     FAIR      74  68  81 E10       29.76S
SAINT CLOUD    MOCLDY    75  69  81 E8        29.78R
MINNEAPOLIS    MOCLDY    80  69  69 SE15      29.79S
$$

  *****  WEATHER ACROSS SOUTH DAKOTA  *****

CITY           SKY/WX    TMP DP  RH WIND       PRES   REMARKS
SIOUX FALLS    FAIR      83  72  69 SE12      29.70R
BROOKINGS      MOCLDY    78  69  73 SE6       29.72R
WATERTOWN      FAIR      75  68  78 SE8       29.70R
HURON          FAIR      78  67  68 SE7       29.65R
SISSETON         N/A     76  70  82 S7        29.68R
ABERDEEN       FAIR      74  66  76 SE6       29.66R
MITCHELL       FAIR      81  67  62 SE6       29.64R
PIERRE         FAIR      76  54  46 SE8       29.61R
MOBRIDGE       CLOUDY    77  60  55 N12       29.64R
RAPID CITY     CLEAR     66  39  37 N13       29.72R
$$

  *****  SOME WEATHER IN NEARBY STATES *****

CITY           SKY/WX    TMP DP  RH WIND       PRES   REMARKS
GLASGOW MT     MOCLDY    56  33  42 W6        29.88R
GREAT FALLS MT FAIR      50  28  42 NE8       29.91R
CHEYENNE WY    FAIR      76  20  12 SE3       29.74F
SCOTTSBLUFF NE FAIR      72  42  34 E10       29.62S
OMAHA NE       FAIR      87  72  60 SE21G29   29.74S HX  93
DES MOINES IA  FAIR      84  70  62 SE15      29.83R
DAVENPORT IA   FAIR      77  69  76 S7        29.96S
CHICAGO IL     FAIR      85  69  58 S7        29.99R
EAU CLAIRE WI  FAIR      76  66  71 SE9       29.88R
LA CROSSE WI   CLEAR     81  63  54 SE8       29.87S
$$

  *****  SOME NATIONAL WEATHER *****

CITY           SKY/WX    TMP DP  RH WIND       PRES   REMARKS
LA GUARDIA NY  MOCLDY    75  64  68 N10       30.01R
RALEIGH NC     FAIR      68  65  90 CALM      30.04R
ATLANTA GA     MOCLDY    79  65  62 NW6       30.03R
NEW ORLEANS LA MOCLDY    83  74  74 E3        29.96R
OKLAHOMA CITY  FAIR      84  70  62 SE15      29.85R
ALBUQUERQUE NM FAIR      84  33  16 S21       29.88S
SALT LAKE CITY LGT RAIN  48  42  80 NW18      29.78R
LOS ANGELES CA FAIR      67  56  67 W15       29.81S
BOISE ID       FAIR      56  33  42 NW10      29.80R
SEATTLE WA     PTSUNNY   62  46  55 NW3       29.97R
$$

*** WEATHER ACROSS MANITOBA...SASKATCHEWAN AND ONTARIO ***
                ***ONTARIO***

CITY           SKY/WX    TMP DP  RH WIND       PRES   REMARKS
GERALDTON      PTCLDY    54  50  87 E3        30.03R
THUNDER BAY    PTCLDY    55  48  76 E7        29.99S
SIOUX LOOKOUT  PTCLDY    63  48  59 SE5       29.86F
TORONTO        CLEAR     72  61  68 E3        30.12R
BIG TROUT LK   CLOUDY    61  46  59 SW8       29.89S
PICKLE LAKE    PTCLDY    59  46  63 SE9       29.92S
DRYDEN         PTCLDY    63  50  63 SE10      29.84F
KENORA         MOCLDY    64  48  55 S10       29.79R
$$
                *** MANITOBA***

CITY           SKY/WX    TMP DP  RH WIND       PRES   REMARKS
BRANDON        MOCLDY    54  52  94 NW9       29.78R
DAUPHIN        MOCLDY    55  50  82 SW5       29.78R
ISLAND LAKE    MOCLDY    57  50  77 S6        29.77R
PILOT MOUND      N/A     61  48  63 NE8         N/A
THE PAS        PTCLDY    54  39  58 W10G17    29.74R
THOMPSON       MOCLDY    50  45  81 NW5       29.67R
WINNIPEG       CLOUDY    63  52  67 NE9       29.74R
LYNN LAKE      PTCLDY    41  39  93 N9        29.72R
CHURCHILL      LGT RAIN  46  46 100 NE15      29.69F
GILLAM         PTCLDY    55  45  67 S5        29.65R
$$
                ***SASKATCHEWAN***

CITY           SKY/WX    TMP DP  RH WIND       PRES   REMARKS
ESTEVAN        MOCLDY    50  37  62 NW5       29.85R
KINDERSLEY     CLOUDY    45  37  76 NW8G17    29.90R
LLOYDMINSTER   LGT RAIN  41  37  87 N13       29.90R
PRINCE ALBERT  MOCLDY    46  43  87 W7        29.83R
REGINA         PTCLDY    50  34  53 NW12      29.87R
YORKTON        PTCLDY    54  37  54 W9        29.80R



USA.gov is the U.S. government's official web portal to all federal, state and local government web resources and services.